Temperature
15 15 15 15 15 15 15 15 15 14 14 14 14 14 14 14 14 14 14 14 14 13 13 13 13 13 13 12 12 12 12 12 12 11 11 11 11 11 11 11 11 11 11
15 15 15 15 15 15 15 15 14 14 14 14 14 14 14 14 14 14 13 13 13 13 13 13 13 13 12 12 12 12 12 11 11 11 11 11 11 11 10 10 10 10 10
15 15 15 15 15 14 14 14 14 14 14 14 14 14 14 14 14 14 13 13 13 13 13 13 13 12 12 12 12 11 11 11 11 11 11 11 10 10 10 10 10 10 10
14 15 14 15 15 14 14 14 14 14 14 14 14 14 13 14 14 13 13 13 13 13 13 12 12 12 12 12 11 11 11 11 11 10 10 10 10 10 10 10 10 10 10
14 14 14 14 14 14 14 14 14 14 14 13 13 13 13 13 13 13 13 13 13 13 12 12 12 12 12 11 11 11 11 10 10 10 10 10 10 10 10 10 10 9 9
14 14 14 14 14 14 14 14 14 14 13 13 13 13 13 13 13 13 13 13 13 12 12 12 12 12 11 11 11 11 10 10 10 10 10 10 9 9 9 9 9 9 9
14 14 14 14 14 14 14 14 14 13 13 13 13 12 13 13 13 13 13 13 12 12 12 12 11 11 11 11 10 10 10 10 9 9 9 9 9 9 9 9 9 9 9
14 14 14 14 14 14 13 13 13 13 13 13 12 12 12 12 12 12 12 12 12 12 12 11 11 11 10 10 10 9 9 9 9 9 9 9 9 9 9 8 8 9 9
14 14 14 14 14 14 13 13 13 13 13 13 12 12 12 12 12 12 12 12 11 11 11 11 11 10 10 9 9 9 9 9 8 8 8 8 8 8 8 8 8 8 8
13 13 13 13 13 13 13 13 13 13 13 13 12 12 12 12 12 11 11 11 11 11 11 11 10 10 10 9 9 9 8 8 8 8 8 7 7 8 8 8 8 8 8
13 13 13 13 13 13 13 13 13 13 13 13 12 12 12 11 11 11 10 10 10 10 10 10 10 9 9 9 8 8 8 7 7 7 7 7 7 7 7 7 7 7 7
12 12 12 12 12 12 12 12 12 12 12 12 12 12 12 11 11 11 10 10 10 10 9 9 9 9 8 8 8 7 7 7 7 7 6 7 7 7 7 7 7 7 7
12 12 12 12 12 12 12 12 12 12 12 12 12 11 11 11 11 11 10 10 9 9 9 9 8 8 8 7 7 7 6 6 6 6 6 6 6 6 6 6 6 7 7
11 12 12 11 11 11 11 11 11 11 11 11 11 11 11 11 10 10 10 10 9 8 8 8 8 7 7 7 6 6 6 6 6 6 5 6 6 6 6 6 6 6 6
11 11 11 11 11 11 11 11 11 11 11 11 11 11 10 10 10 10 10 9 9 8 7 7 7 7 6 6 6 5 5 5 5 5 5 5 5 5 5 5 5 6 6
10 10 11 10 10 10 10 10 10 10 10 10 10 10 10 10 9 9 9 9 8 8 7 7 6 6 6 5 5 4 4 4 4 4 4 4 5 4 4 5 5 5 5
10 10 10 10 10 10 9 9 9 10 10 10 10 9 9 9 9 9 8 8 8 7 6 6 5 5 5 4 4 4 4 4 4 4 4 4 4 4 4 4 4 4 5
9 9 9 9 9 9 9 9 9 9 9 9 9 9 9 9 8 8 8 8 7 7 6 6 5 5 4 4 3 3 3 3 3 3 3 3 3 3 3 3 4 4 4
9 9 8 8 8 8 8 8 8 8 8 9 9 8 8 8 8 8 7 7 6 6 6 5 4 4 4 3 3 3 2 2 2 2 2 2 3 3 3 3 3 3 3
8 8 8 8 8 8 8 8 8 8 8 8 8 8 8 8 7 7 6 6 6 5 5 4 4 3 3 3 2 2 2 2 2 2 2 2 2 2 2 2 2 3 3
7 7 7 7 7 7 7 7 7 7 7 7 7 7 7 7 7 6 6 5 5 5 4 4 3 3 2 2 2 2 2 2 2 2 2 1 1 2 2 2 2 2 2
6 6 6 6 6 6 6 6 6 7 7 7 6 6 6 6 6 5 5 5 4 4 4 3 3 2 2 2 2 1 1 1 1 1 1 1 1 1 1 1 1 1 2
5 5 6 6 6 6 6 6 6 6 6 6 6 6 5 5 5 5 4 4 4 3 3 2 2 2 2 2 1 1 1 1 1 1 1 1 1 1 1 1 1 1 1
5 5 5 5 5 5 5 5 5 5 5 5 5 5 5 4 4 4 4 3 3 3 2 2 2 2 1 1 1 1 1 0 0 0 0 0 0 0 0 0 0 1 1
4 4 4 4 4 4 4 4 4 4 4 4 4 4 4 4 4 3 3 3 2 2 2 1 1 1 1 1 0 0 0 0 0 -0 -0 -0 0 0 0 0 0 0 0
3 3 3 3 3 3 4 4 4 4 4 4 4 3 3 3 3 3 2 2 2 1 1 1 1 0 0 0 -0 -0 -0 -0 -0 -0 -0 -1 -0 -0 -0 -0 -0 -0 -0
Wind_Speed
6 7 7 10 11 11 10 8 8 7 7 7 7 5 4 5 4 6 8 10 8 6 4 4 3 4 4 4 3 3 2 2 2 2 3 3 4 4 4 5 5 4 4
6 6 5 6 7 9 9 8 7 5 4 4 4 4 3 4 3 5 8 8 8 7 6 4 4 4 4 4 3 2 2 2 2 2 2 3 3 4 5 5 5 4 4
9 6 5 5 6 8 8 6 5 4 2 2 3 2 2 1 1 3 6 7 7 7 6 5 4 3 3 3 2 2 2 2 2 2 3 3 4 4 5 6 5 5 5
10 6 5 4 7 8 5 3 3 2 2 2 2 2 1 1 0 1 4 6 6 6 6 5 3 3 2 2 2 2 2 2 2 2 3 4 4 4 5 5 5 5 5
10 7 5 5 7 5 4 4 3 3 3 3 3 2 2 2 2 1 2 3 5 5 5 6 4 3 2 2 2 2 2 1 2 2 3 4 5 5 5 6 5 5 5
10 8 5 5 6 4 4 4 5 4 3 4 3 2 2 2 2 2 2 3 4 5 5 5 5 4 2 1 1 1 1 2 2 3 4 4 5 5 6 6 6 6 6
9 7 5 6 5 5 6 6 4 5 4 3 2 1 2 2 3 3 2 2 3 4 4 4 4 4 3 3 2 1 1 2 3 3 3 4 5 5 6 6 6 7 7
8 6 6 6 6 5 6 6 5 4 4 4 3 2 2 2 2 3 3 3 3 4 3 3 4 4 4 3 3 2 3 3 4 4 4 4 5 6 6 6 6 7 7
7 7 7 6 6 6 6 6 6 6 5 5 5 4 3 4 1 1 3 3 3 3 3 3 4 4 4 3 3 3 4 4 5 5 5 5 5 6 6 6 7 7 7
6 6 6 6 6 6 6 6 6 5 6 5 4 4 3 2 3 2 1 2 3 3 3 3 4 4 4 4 4 4 4 4 5 5 5 6 6 6 6 6 7 7 6
5 5 5 5 6 5 6 6 6 6 6 6 5 3 3 2 2 3 3 3 1 2 3 3 4 4 4 4 4 4 4 4 4 5 5 5 5 6 6 6 6 6 6
4 5 5 5 6 5 6 6 6 7 6 6 5 4 4 3 3 3 3 3 3 2 2 2 3 4 4 4 4 3 3 4 4 4 5 6 7 7 7 7 7 7 6
4 6 5 5 5 6 6 6 6 7 7 7 6 5 4 4 3 3 3 3 2 1 2 1 2 4 4 4 3 2 3 3 4 4 5 7 7 7 7 7 8 7 7
6 6 6 6 6 6 6 6 6 6 5 6 6 6 4 4 3 3 3 3 2 1 2 3 2 4 4 4 3 2 3 3 4 5 6 7 7 7 6 7 7 8 7
4 6 6 7 6 6 6 6 6 6 6 6 6 6 5 4 4 3 3 3 4 4 3 3 2 2 4 4 3 3 4 4 5 5 6 7 7 7 7 7 7 8 8
4 4 5 5 5 5 6 6 5 6 6 6 5 6 5 3 4 3 3 3 3 3 3 1 2 2 4 4 3 3 5 5 4 5 6 7 7 8 8 8 9 9 9
3 4 4 4 5 5 5 6 6 6 7 6 6 6 6 6 5 4 3 3 2 2 3 1 1 2 2 3 2 3 4 4 4 5 5 6 7 7 8 9 9 9 9
2 3 3 4 5 5 5 6 6 6 7 8 7 7 7 5 6 5 4 4 3 3 3 3 2 2 2 3 2 2 3 4 4 5 5 5 6 6 6 8 8 9 9
2 2 3 4 4 4 4 5 5 6 6 7 7 7 7 7 6 4 4 4 3 3 3 3 3 1 1 2 2 2 2 2 3 4 4 4 5 5 6 7 8 8 9
2 2 2 2 3 3 4 4 4 5 5 5 5 6 7 7 7 6 5 5 4 4 4 4 3 2 2 2 2 2 1 1 1 2 3 3 4 5 6 7 8 8 8
1 2 2 2 2 2 3 3 4 4 5 5 5 5 5 6 7 6 5 5 5 4 4 4 3 2 2 3 3 2 2 2 0 1 1 1 2 3 3 4 6 7 8
1 1 1 1 1 1 2 3 4 4 5 6 6 5 6 6 7 7 7 6 6 5 5 4 3 3 4 4 3 3 3 2 2 1 2 1 2 1 1 3 4 5 6
1 1 1 1 1 2 3 4 5 4 5 6 6 6 5 6 7 6 7 6 4 4 5 4 4 4 4 5 5 4 3 3 2 3 3 1 1 1 2 3 4 4 5
1 1 1 1 1 1 4 5 6 4 4 5 5 7 7 7 7 7 6 5 4 3 2 2 3 3 3 4 5 5 5 3 2 1 2 2 1 1 1 2 3 4 4
1 1 1 1 1 2 4 6 6 4 4 4 5 6 7 7 10 10 7 6 5 3 4 6 6 6 6 6 7 5 5 4 2 1 1 2 2 1 1 0 3 4 4
1 1 1 1 2 3 5 6 6 4 5 4 4 5 7 8 10 10 7 7 6 4 4 4 4 4 4 5 6 5 5 4 2 2 2 2 2 2 1 0 1 3 3
Wind_Direction
160 162 171 173 181 185 180 189 205 206 206 200 206 208 199 204 195 160 161 172 179 184 198 215 234 248 255 253 265 273 287 270 270 284 304 311 305 308 317 327 330 322 331
165 166 172 174 184 183 181 192 205 202 206 193 204 209 215 220 199 163 160 168 177 187 197 212 237 253 256 253 261 259 270 264 267 271 288 306 307 302 303 306 310 312 315
171 170 170 176 179 179 182 195 213 199 196 190 203 221 215 217 132 143 153 165 175 185 195 208 225 244 257 253 254 252 277 271 277 281 289 300 303 300 292 291 293 299 293
174 172 171 180 179 178 178 187 194 178 184 191 211 225 198 151 144 174 148 156 166 174 185 195 201 224 252 246 253 258 290 284 302 305 302 298 294 295 296 291 289 290 290
177 175 176 186 182 176 181 189 187 182 188 200 213 216 199 171 187 185 162 153 149 151 158 170 170 175 196 215 247 256 280 296 305 309 317 311 305 302 300 291 287 285 288
182 179 180 189 183 177 188 192 192 194 191 188 199 210 216 190 191 186 178 143 138 141 143 155 159 151 154 161 192 255 274 309 308 313 322 316 308 305 301 296 288 284 283
187 183 186 190 187 192 197 195 194 194 197 175 153 220 244 218 206 188 162 144 134 132 135 136 141 137 133 109 82 72 10 315 315 322 321 322 315 313 307 303 299 289 281
189 186 188 194 192 196 202 203 196 194 194 177 167 172 216 246 234 184 154 153 147 135 132 125 117 111 102 106 98 72 17 345 330 326 318 319 311 307 305 304 302 299 295
194 191 193 197 199 199 206 205 200 195 199 199 187 176 185 205 175 190 185 167 158 151 143 134 116 104 101 95 88 67 34 356 334 326 323 323 316 313 309 311 310 307 311
197 197 197 200 201 202 203 205 202 202 195 202 205 207 201 162 163 182 208 188 169 171 166 145 125 113 104 93 87 65 34 4 345 338 332 336 332 326 323 323 321 321 325
201 198 195 202 204 205 204 202 202 204 206 205 197 187 200 211 195 178 200 198 192 192 156 139 128 122 108 98 90 60 38 18 3 354 345 349 357 0 357 350 343 341 339
210 203 199 207 206 206 205 207 209 206 210 207 199 186 176 177 195 192 200 189 191 186 137 120 124 122 117 110 103 69 50 37 23 16 14 22 23 14 9 8 5 358 353
226 213 211 211 210 208 209 206 207 209 209 203 201 195 191 188 173 176 179 185 172 152 145 151 127 122 122 121 113 91 77 55 42 33 31 33 27 17 13 11 11 7 3
222 213 209 216 217 211 211 209 210 210 205 205 199 188 190 184 175 174 173 166 172 185 182 177 129 132 131 125 123 119 101 82 71 59 48 41 32 25 21 16 15 13 14
224 212 211 216 215 210 208 206 213 208 200 203 194 183 184 180 168 161 153 156 167 193 212 168 145 137 128 123 136 125 112 99 91 81 70 57 48 45 39 30 28 26 25
222 212 218 220 215 211 206 208 212 204 197 200 189 175 174 164 151 144 145 152 160 177 192 154 143 140 128 126 138 121 113 106 101 98 84 71 62 54 46 41 39 36 39
221 214 220 221 219 219 211 209 206 193 191 187 175 169 166 155 154 148 146 152 168 166 189 145 87 121 126 132 126 118 118 106 105 104 94 81 73 62 49 47 43 40 44
244 223 215 220 222 219 216 211 203 194 189 184 175 164 160 154 151 151 155 166 175 168 169 177 153 134 128 146 141 122 116 114 111 108 100 90 79 70 61 56 48 46 49
281 262 226 220 219 213 213 214 204 197 185 175 168 164 161 158 160 156 156 163 161 148 142 153 152 128 124 144 129 108 112 107 121 119 110 95 83 76 74 64 54 55 59
285 270 255 237 222 212 208 207 195 180 165 154 153 154 156 160 159 154 157 158 151 144 141 145 145 144 140 141 140 157 156 134 134 126 119 109 99 87 77 69 61 63 68
311 282 265 251 236 223 201 186 175 160 148 136 128 128 130 133 140 148 155 156 155 157 156 153 149 143 156 166 185 173 170 148 165 153 107 108 112 91 78 72 67 68 70
321 315 281 242 232 228 166 160 152 143 143 143 139 128 124 126 132 136 139 144 151 159 164 160 164 176 187 184 167 164 149 148 202 200 132 155 138 107 110 104 94 85 81
298 296 307 269 222 159 153 159 146 143 145 149 149 145 143 147 140 136 138 129 118 128 149 158 171 185 180 178 164 163 168 168 192 178 129 162 139 130 135 120 115 107 101
298 274 273 258 181 173 164 162 150 138 139 149 153 154 151 150 152 147 141 132 123 108 121 139 161 165 152 152 163 164 156 124 85 81 123 151 161 148 132 143 146 139 123
303 278 223 209 193 189 174 165 149 133 137 142 142 146 150 150 160 156 143 138 130 122 110 119 121 126 132 145 145 129 133 133 148 202 167 139 147 116 110 148 171 164 153
286 290 284 233 199 192 180 172 159 148 150 147 142 147 158 161 166 163 152 151 157 162 140 120 109 111 119 145 151 150 158 156 149 186 195 141 139 124 123 308 160 175 182
Height
1530 1533 1535 1538 1540 1542 1544 1545 1547 1549 1551 1552 1553 1555 1555 1556 1556 1556 1556 1555 1555 1555 1554 1554 1553 1553 1552 1552 1552 1551 1550 1550 1549 1548 1547 1546 1545 1545 1543 1542 1541 1541 1540
1528 1531 1533 1536 1538 1540 1542 1544 1546 1548 1549 1550 1551 1552 1553 1554 1554 1554 1554 1553 1553 1553 1552 1552 1551 1551 1550 1550 1550 1549 1548 1548 1547 1546 1546 1545 1544 1543 1542 1541 1540 1539 1538
1526 1529 1531 1533 1536 1538 1540 1542 1544 1545 1547 1548 1549 1550 1551 1552 1552 1552 1551 1551 1551 1550 1550 1550 1549 1549 1548 1548 1547 1547 1547 1546 1545 1545 1544 1543 1542 1541 1540 1539 1538 1537 1536
1524 1526 1528 1531 1533 1535 1537 1539 1541 1542 1544 1545 1546 1547 1548 1548 1549 1549 1549 1548 1548 1547 1547 1547 1546 1546 1546 1545 1545 1545 1544 1544 1543 1543 1542 1541 1540 1539 1538 1537 1536 1535 1535
1521 1523 1525 1528 1530 1532 1534 1536 1537 1539 1540 1541 1543 1544 1544 1545 1545 1546 1546 1545 1545 1545 1544 1544 1544 1543 1543 1543 1542 1542 1542 1541 1541 1540 1539 1538 1537 1536 1536 1535 1534 1533 1532
1517 1520 1522 1524 1526 1528 1530 1532 1533 1535 1536 1538 1539 1540 1541 1541 1542 1542 1542 1542 1542 1542 1541 1541 1541 1540 1540 1540 1540 1539 1539 1538 1538 1537 1536 1535 1534 1534 1533 1532 1531 1530 1529
1513 1516 1518 1520 1522 1524 1526 1527 1529 1531 1532 1534 1535 1536 1536 1537 1538 1538 1538 1538 1538 1538 1538 1538 1537 1537 1537 1537 1537 1536 1536 1535 1535 1534 1533 1532 1531 1531 1530 1529 1528 1527 1527
1509 1511 1514 1516 1517 1519 1521 1523 1525 1526 1527 1529 1530 1531 1532 1533 1533 1534 1534 1534 1535 1534 1534 1534 1534 1534 1534 1534 1533 1533 1533 1532 1532 1531 1530 1529 1528 1527 1526 1526 1525 1524 1523
1505 1507 1509 1511 1513 1514 1516 1518 1519 1521 1522 1523 1525 1526 1526 1526 1528 1529 1529 1530 1531 1531 1531 1531 1531 1531 1530 1530 1530 1530 1529 1529 1528 1528 1527 1526 1525 1524 1523 1522 1521 1521 1520
1500 1502 1504 1506 1508 1509 1511 1512 1514 1515 1516 1517 1518 1520 1521 1522 1523 1524 1525 1526 1527 1527 1527 1527 1527 1527 1527 1526 1526 1526 1526 1525 1525 1524 1523 1522 1521 1520 1519 1518 1518 1517 1516
1495 1497 1498 1500 1502 1503 1505 1506 1507 1509 1510 1511 1512 1513 1515 1517 1518 1519 1519 1521 1522 1522 1523 1523 1523 1523 1522 1522 1522 1522 1522 1521 1521 1520 1520 1519 1518 1517 1516 1515 1514 1513 1513
1489 1491 1492 1494 1496 1497 1499 1500 1501 1502 1504 1505 1506 1507 1508 1510 1512 1513 1514 1515 1517 1518 1518 1518 1518 1518 1518 1518 1518 1518 1518 1518 1517 1517 1516 1515 1514 1513 1512 1512 1511 1510 1510
1483 1485 1487 1488 1489 1491 1492 1494 1495 1496 1498 1499 1500 1501 1502 1504 1506 1508 1510 1511 1512 1512 1513 1514 1514 1514 1514 1514 1514 1514 1514 1514 1513 1513 1512 1511 1510 1510 1509 1509 1508 1507 1507
1477 1479 1480 1481 1483 1484 1486 1487 1488 1490 1491 1493 1493 1495 1497 1499 1500 1502 1504 1505 1506 1507 1508 1509 1509 1509 1509 1510 1510 1509 1510 1510 1509 1509 1508 1507 1507 1506 1506 1505 1505 1505 1504
1472 1473 1474 1475 1476 1478 1479 1480 1481 1483 1485 1486 1487 1489 1491 1492 1494 1496 1498 1500 1502 1501 1502 1503 1504 1504 1505 1505 1505 1505 1506 1506 1506 1505 1505 1504 1503 1503 1503 1502 1502 1502 1502
1467 1467 1468 1469 1470 1471 1473 1474 1475 1477 1478 1480 1481 1482 1485 1487 1488 1490 1492 1494 1496 1497 1497 1498 1499 1500 1500 1501 1502 1502 1502 1502 1502 1502 1502 1501 1501 1501 1500 1500 1500 1500 1500
1462 1462 1463 1464 1465 1465 1466 1468 1469 1470 1472 1473 1475 1477 1479 1481 1482 1484 1487 1489 1490 1492 1492 1493 1494 1495 1496 1497 1498 1498 1498 1498 1499 1499 1499 1499 1499 1499 1498 1499 1499 1499 1498
1457 1457 1458 1459 1460 1460 1461 1462 1463 1464 1465 1467 1469 1471 1473 1475 1476 1479 1481 1483 1485 1486 1488 1488 1489 1491 1492 1493 1494 1494 1494 1495 1496 1496 1496 1496 1496 1496 1497 1497 1497 1497 1497
1453 1453 1454 1454 1455 1455 1456 1457 1458 1459 1460 1462 1464 1466 1468 1470 1472 1474 1476 1478 1480 1481 1482 1484 1484 1486 1487 1488 1489 1490 1491 1492 1493 1493 1494 1494 1494 1494 1494 1495 1495 1495 1496
1449 1449 1450 1450 1450 1451 1451 1452 1453 1454 1455 1457 1459 1461 1463 1466 1468 1470 1472 1473 1475 1476 1478 1479 1480 1481 1483 1484 1486 1487 1488 1489 1490 1490 1491 1491 1492 1492 1492 1493 1494 1494 1494
1446 1446 1446 1446 1446 1447 1447 1448 1449 1450 1451 1453 1455 1457 1459 1461 1463 1465 1468 1469 1471 1472 1474 1475 1476 1477 1479 1480 1482 1483 1484 1485 1486 1487 1488 1489 1489 1490 1490 1491 1492 1493 1493
1442 1442 1442 1442 1442 1442 1443 1444 1445 1446 1447 1449 1451 1453 1455 1458 1459 1461 1464 1465 1467 1469 1469 1471 1472 1473 1475 1476 1478 1480 1481 1482 1483 1485 1485 1486 1487 1488 1489 1490 1491 1491 1492
1439 1438 1438 1438 1438 1439 1439 1440 1441 1443 1443 1445 1448 1449 1452 1454 1456 1458 1460 1462 1463 1465 1466 1468 1469 1470 1471 1473 1475 1476 1477 1479 1480 1481 1483 1483 1485 1485 1487 1488 1489 1490 1491
1435 1435 1434 1435 1435 1435 1436 1437 1438 1439 1440 1442 1445 1446 1449 1450 1453 1454 1456 1458 1460 1461 1462 1464 1465 1466 1468 1469 1471 1473 1474 1476 1477 1479 1480 1481 1482 1483 1484 1486 1487 1488 1489
1433 1432 1432 1432 1432 1433 1434 1434 1436 1436 1438 1439 1441 1444 1446 1447 1449 1451 1453 1454 1456 1458 1459 1460 1462 1463 1464 1466 1468 1469 1471 1472 1473 1475 1477 1478 1479 1480 1482 1483 1484 1486 1487
1430 1429 1429 1429 1430 1430 1431 1432 1433 1434 1435 1437 1439 1440 1443 1444 1446 1448 1450 1451 1453 1454 1456 1457 1458 1460 1461 1463 1464 1466 1468 1469 1470 1472 1473 1475 1476 1478 1480 1481 1482 1483 1485